Location: Unspecified
(41.5000°N, 0.0000°E)
Time: 15:50:49
(UTC+00:00)

deb Explorer IX - Pass Details

Date: 25 June 2019
Orbit: 539 x 1112 km, 38.8° (Epoch: 17 July)

Event Time Altitude Azimuth Distance (km) Brightness Sun altitude
Rises 12:11:54 0° 231° (SW) 3,602 ? 71.8°
Reaches altitude 10° 12:14:31 10° 225° (SW) 2,734 ? 71.7°
Maximum altitude 12:20:51 44° 155° (SSE) 1,434 ? 71.5°
Drops below altitude 10° 12:27:42 10° 87° (E) 2,966 ? 71.1°
Sets 12:30:38 0° 81° (E) 3,935 ? 71.0°
